Location: Bathurst
(33.4193°S, 149.5775°E)
Time: 08:04:49
(UTC+10:00)

ISS - Pass Details

Date: 29 May 2018
Orbit: 402 x 408 km, 51.6° (Epoch: 20 September)

Event Time Altitude Azimuth Distance (km) Brightness Sun altitude
Exits shadow 05:40:50 31° 279° (W) 754 -3.0 -15.3°
Maximum altitude 05:42:05 50° 221° (SW) 539 -3.6 -15.1°
Drops below altitude 10° 05:45:24 10° 144° (SE) 1,510 -0.7 -14.4°
Sets 05:47:34 0° 138° (SE) 2,383 0.4 -14.0°
